Home   Weather   Brazzaville   Past weeks
Flag for Congo

Past Weather in Brazzaville, Congo — Yesterday and Last 2 Weeks

Now
72 °F

Passing clouds.


Feels Like: 67 °F
Forecast: 87 / 72 °F
Wind: 3 mph from Southwest

Location: Brazzaville / Maya-Maya

Current Time: Feb 16, 2019 at 5:08:41 am

Latest Report: Feb 16, 2019 at 4:00 am


Visibility: 6 mi

Pressure: 29.95 "Hg

Humidity: 94%

Dew Point: 70 °F

Location of BrazzavilleLocation

Past Weather in Brazzaville — Graph

°F

Brazzaville Temperature Yesterday

Maximum temperature yesterday: 81 °F (at 4:00 pm)
Minimum temperature yesterday: 72 °F (at 7:00 am)
Average temperature yesterday: 76 °F

High & Low Weather Summary for the Past Weeks

 TemperatureHumidityPressure
High93 °F (Feb 2, 5:00 pm)100% (Feb 2, 6:00 am)30.04 "Hg (Feb 2, 6:00 am)
Low72 °F (Feb 4, 1:00 am)47% (Feb 2, 5:00 pm)29.71 "Hg (Feb 11, 4:00 pm)
Average80 °F81%29.88 "Hg
* Reported Feb 1 3:00 am — Feb 16 3:00 am, Brazzaville. Weather by CustomWeather, © 2019

Note: Actual official high and low records may vary slightly from our data, if they occured in-between our weather recording intervals... More about our weather records

Advertising

Brazzaville Weather History for the Previous 24 Hours

Scroll right to see more
 ConditionsComfort  
Time TempWeatherWind HumidityBarometerVisibility
3:00 am
Sat, Feb 16
72 °FPassing clouds.2 mph100%29.98 "Hg6 mi
2:00 am72 °FPassing clouds.3 mph100%29.98 "Hg6 mi
1:00 am73 °FPassing clouds.No wind94%29.98 "Hg6 mi
12:00 am73 °FPassing clouds.No wind94%29.98 "Hg6 mi
11:00 pm
Fri, Feb 15
73 °FPassing clouds.3 mph94%30.01 "Hg6 mi
10:00 pm73 °FPassing clouds.3 mph94%29.98 "Hg6 mi
9:00 pm73 °FPassing clouds.2 mph94%29.98 "Hg6 mi
8:00 pm75 °FClear.3 mph89%29.92 "Hg5 mi
7:00 pm75 °FClear.5 mph94%29.89 "Hg5 mi
6:00 pm77 °FPassing clouds.5 mph83%29.89 "HgN/A
5:00 pm81 °FScattered clouds.5 mph79%29.86 "Hg5 mi
4:00 pm81 °FPassing clouds.2 mph74%29.86 "Hg5 mi
3:00 pm79 °FScattered clouds.1 mph79%29.89 "Hg4 mi
2:00 pm75 °FPartly sunny.6 mph89%29.92 "Hg5 mi
1:00 pm73 °FThunderstorms. Scattered clouds.7 mph94%29.95 "Hg6 mi
12:00 pm73 °FThunderstorms. Broken clouds.2 mph94%30.01 "Hg4 mi
11:00 am73 °FStrong thunderstorms. Scattered clouds.3 mph94%30.04 "Hg2 mi
10:00 am73 °FThunderstorms. Scattered clouds.3 mph94%30.04 "Hg4 mi
9:00 am73 °FThunderstorms. Scattered clouds.2 mph94%30.04 "Hg5 mi
8:00 am72 °FThunderstorms. Scattered clouds.2 mph94%30.01 "HgN/A
7:00 am72 °FThunderstorms. Fog.9 mph94%29.98 "Hg1 mi
6:00 am77 °FThunderstorms. Partly cloudy.2 mph94%29.95 "HgN/A
5:00 am79 °FClear.3 mph89%29.95 "Hg6 mi
Weather by CustomWeather, © 2019

See weather overview